DLH2558 EDDM-UGTB

Flight info

Callsign DLH2558
Flight time 3h 18m
Altitude 35000
Route KIRDI4N KIRDI DCT BUWOQ DCT OBFEZ DCT STEIN DCT TEGRI DCT DINRO N743 UDROS UM859 KARDE UL851 TBN UM11 REBLO T165 TAVRO
Aircraft A321/M-SDE3FGHIRWY/LB1

Departure

Time 2026-04-16 07:15
Airport Munich Airport (EDDM)

Arrival

Time 2026-04-16 10:33
Airport Tbilisi International Airport (UGTB)
Time Latitude Longitude Altitude Speed Heading
2026-04-16 06:51 48.35694 11.79700 1473 ft 0 kts 83°
2026-04-16 07:06 48.35693 11.79691 1485 ft 4 kts 84°
2026-04-16 07:06 48.35692 11.79651 1481 ft 4 kts 91°
2026-04-16 07:07 48.35693 11.79610 1474 ft 4 kts 97°
2026-04-16 07:07 48.35698 11.79570 1473 ft 4 kts 103°
2026-04-16 07:07 48.35705 11.79532 1471 ft 4 kts 112°
2026-04-16 07:07 48.35717 11.79496 1477 ft 4 kts 128°
2026-04-16 07:08 48.35735 11.79472 1472 ft 3 kts 170°
2026-04-16 07:08 48.35738 11.79471 1485 ft 0 kts 173°
2026-04-16 07:09 48.35736 11.79472 1485 ft 1 kts 173°
2026-04-16 07:10 48.35708 11.79477 1472 ft 7 kts 173°
2026-04-16 07:10 48.35649 11.79487 1483 ft 10 kts 173°
2026-04-16 07:10 48.35567 11.79502 1475 ft 14 kts 172°
2026-04-16 07:10 48.35453 11.79522 1473 ft 18 kts 173°
2026-04-16 07:11 48.35326 11.79544 1481 ft 19 kts 173°
2026-04-16 07:11 48.35196 11.79566 1481 ft 19 kts 173°
2026-04-16 07:11 48.35063 11.79588 1478 ft 19 kts 174°
2026-04-16 07:11 48.34956 11.79670 1483 ft 17 kts 159°
2026-04-16 07:12 48.34841 11.79696 1484 ft 17 kts 174°
2026-04-16 07:12 48.34721 11.79708 1485 ft 17 kts 188°
2026-04-16 07:12 48.34646 11.79587 1481 ft 16 kts 234°
2026-04-16 07:12 48.34578 11.79446 1478 ft 17 kts 234°
2026-04-16 07:13 48.34521 11.79334 1478 ft 4 kts 233°
2026-04-16 07:13 48.34501 11.79293 1478 ft 5 kts 233°
2026-04-16 07:13 48.34490 11.79271 1471 ft 6 kts 233°
2026-04-16 07:13 48.34437 11.79162 1481 ft 20 kts 236°
2026-04-16 07:14 48.34369 11.78953 1482 ft 25 kts 254°
2026-04-16 07:14 48.34317 11.78347 1482 ft 93 kts 263°
2026-04-16 07:14 48.34219 11.77071 1475 ft 151 kts 263°
2026-04-16 07:14 48.34085 11.75361 1920 ft 165 kts 263°
2026-04-16 07:15 48.33981 11.73669 2792 ft 163 kts 264°
2026-04-16 07:15 48.33793 11.71915 3061 ft 183 kts 244°
2026-04-16 07:15 48.32762 11.70669 3316 ft 208 kts 199°
2026-04-16 07:15 48.31268 11.70591 3703 ft 222 kts 176°
2026-04-16 07:16 48.29713 11.70915 4168 ft 230 kts 174°
2026-04-16 07:16 48.28182 11.71604 4836 ft 232 kts 155°
2026-04-16 07:16 48.26762 11.72895 5134 ft 251 kts 149°
2026-04-16 07:16 48.25230 11.74409 5326 ft 275 kts 148°
2026-04-16 07:17 48.23629 11.76040 5949 ft 280 kts 146°
2026-04-16 07:17 48.22030 11.77744 6637 ft 283 kts 144°
2026-04-16 07:17 48.20548 11.79694 7248 ft 288 kts 128°
2026-04-16 07:17 48.19650 11.82388 7736 ft 294 kts 102°
2026-04-16 07:18 48.19508 11.85420 8470 ft 291 kts 88°
2026-04-16 07:18 48.19549 11.88464 9135 ft 293 kts 87°
2026-04-16 07:18 48.19609 11.91546 9754 ft 297 kts 87°
2026-04-16 07:18 48.19673 11.94648 10369 ft 300 kts 87°
2026-04-16 07:19 48.19741 11.97858 10584 ft 318 kts 87°
2026-04-16 07:19 48.19813 12.01273 10711 ft 337 kts 87°
2026-04-16 07:19 48.19886 12.04888 10837 ft 355 kts 88°
2026-04-16 07:19 48.19960 12.08685 10966 ft 372 kts 88°
2026-04-16 07:20 48.20036 12.12639 11121 ft 386 kts 88°
2026-04-16 07:20 48.20111 12.16696 11524 ft 392 kts 88°
2026-04-16 07:20 48.20185 12.20792 12014 ft 395 kts 88°
2026-04-16 07:20 48.20257 12.24865 12497 ft 398 kts 88°
2026-04-16 07:21 48.20330 12.29024 13012 ft 400 kts 88°
2026-04-16 07:21 48.20405 12.33266 13162 ft 413 kts 87°
2026-04-16 07:21 48.20483 12.37605 13461 ft 419 kts 88°
2026-04-16 07:21 48.20556 12.41992 13906 ft 422 kts 88°
2026-04-16 07:22 48.20623 12.46406 14306 ft 425 kts 88°
2026-04-16 07:22 48.20689 12.50851 14694 ft 428 kts 88°
2026-04-16 07:22 48.20757 12.55322 15070 ft 431 kts 88°
2026-04-16 07:22 48.20825 12.59826 15453 ft 433 kts 88°
2026-04-16 07:23 48.20892 12.64354 15825 ft 436 kts 88°
2026-04-16 07:23 48.20957 12.68910 16199 ft 439 kts 88°
2026-04-16 07:23 48.21020 12.73513 16570 ft 442 kts 88°
2026-04-16 07:23 48.21084 12.78137 16933 ft 445 kts 88°
2026-04-16 07:24 48.21145 12.82791 17295 ft 448 kts 88°
2026-04-16 07:24 48.21203 12.87469 17664 ft 450 kts 88°
2026-04-16 07:24 48.21257 12.92187 18015 ft 453 kts 88°
2026-04-16 07:24 48.21309 12.96864 18351 ft 456 kts 88°
2026-04-16 07:25 48.21362 13.01633 18666 ft 459 kts 88°
2026-04-16 07:25 48.21414 13.06428 18961 ft 461 kts 88°
2026-04-16 07:25 48.21466 13.11257 19267 ft 463 kts 88°
2026-04-16 07:25 48.21515 13.16097 19576 ft 465 kts 88°
2026-04-16 07:26 48.21546 13.19314 19781 ft 467 kts 88°
2026-04-16 07:26 48.21594 13.24195 20092 ft 469 kts 88°
2026-04-16 07:26 48.21642 13.29093 20400 ft 471 kts 88°
2026-04-16 07:26 48.21685 13.34017 20712 ft 473 kts 88°
2026-04-16 07:27 48.21723 13.38973 21021 ft 475 kts 88°
2026-04-16 07:27 48.21760 13.43942 21332 ft 477 kts 89°
2026-04-16 07:27 48.21793 13.48929 21628 ft 479 kts 89°
2026-04-16 07:27 48.21824 13.53934 21929 ft 481 kts 89°
2026-04-16 07:28 48.21852 13.58968 22218 ft 484 kts 89°
2026-04-16 07:28 48.21880 13.64025 22486 ft 485 kts 89°
2026-04-16 07:28 48.21908 13.69090 22753 ft 487 kts 89°
2026-04-16 07:28 48.21937 13.74192 23006 ft 489 kts 89°
2026-04-16 07:29 48.21965 13.79300 23248 ft 491 kts 89°
2026-04-16 07:29 48.21988 13.84433 23487 ft 493 kts 89°
2026-04-16 07:29 48.22004 13.89579 23704 ft 494 kts 89°
2026-04-16 07:29 48.21939 13.94674 23886 ft 496 kts 94°
2026-04-16 07:30 48.21397 13.99794 24047 ft 498 kts 104°
2026-04-16 07:30 48.20336 14.04728 24214 ft 499 kts 113°
2026-04-16 07:30 48.18943 14.09502 24376 ft 500 kts 114°
2026-04-16 07:30 48.17543 14.14271 24523 ft 501 kts 114°
2026-04-16 07:31 48.16139 14.19067 24671 ft 502 kts 114°
2026-04-16 07:31 48.15012 14.22921 24780 ft 502 kts 114°
2026-04-16 07:31 48.13610 14.27713 24907 ft 503 kts 114°
2026-04-16 07:31 48.12202 14.32512 25033 ft 504 kts 114°
2026-04-16 07:32 48.10787 14.37316 25168 ft 505 kts 114°
2026-04-16 07:32 48.09366 14.42128 25318 ft 506 kts 114°
2026-04-16 07:32 48.07943 14.46937 25460 ft 506 kts 114°
2026-04-16 07:32 48.06517 14.51748 25650 ft 506 kts 114°
2026-04-16 07:33 48.05090 14.56557 25825 ft 505 kts 114°
2026-04-16 07:33 48.03661 14.61352 26019 ft 505 kts 114°
2026-04-16 07:33 48.02232 14.66134 26215 ft 504 kts 114°
2026-04-16 07:33 48.00803 14.70906 26410 ft 503 kts 114°
2026-04-16 07:34 47.99371 14.75675 26590 ft 503 kts 115°
2026-04-16 07:34 47.97939 14.80437 26794 ft 502 kts 115°
2026-04-16 07:34 47.96527 14.85130 26980 ft 502 kts 115°
2026-04-16 07:34 47.95097 14.89877 27178 ft 501 kts 115°
2026-04-16 07:35 47.93660 14.94633 27370 ft 501 kts 115°
2026-04-16 07:35 47.92227 14.99368 27569 ft 500 kts 114°
2026-04-16 07:35 47.90797 15.04086 27810 ft 499 kts 114°
2026-04-16 07:35 47.89373 15.08786 28022 ft 498 kts 114°
2026-04-16 07:36 47.87945 15.13495 28227 ft 498 kts 115°
2026-04-16 07:36 47.86517 15.18193 28442 ft 497 kts 115°
2026-04-16 07:36 47.85088 15.22873 28640 ft 496 kts 115°
2026-04-16 07:36 47.83656 15.27547 28826 ft 496 kts 115°
2026-04-16 07:37 47.82223 15.32216 29027 ft 496 kts 115°
2026-04-16 07:37 47.80789 15.36888 29233 ft 495 kts 114°
2026-04-16 07:37 47.79386 15.41500 29424 ft 495 kts 114°
2026-04-16 07:37 47.77976 15.46167 29623 ft 495 kts 114°
2026-04-16 07:38 47.76569 15.50837 29800 ft 495 kts 114°
2026-04-16 07:38 47.75162 15.55500 29993 ft 494 kts 114°
2026-04-16 07:38 47.73753 15.60157 30193 ft 494 kts 114°
2026-04-16 07:38 47.72340 15.64804 30371 ft 493 kts 114°
2026-04-16 07:39 47.70924 15.69441 30542 ft 493 kts 114°
2026-04-16 07:39 47.69505 15.74067 30730 ft 492 kts 114°
2026-04-16 07:39 47.68086 15.78688 30910 ft 491 kts 114°
2026-04-16 07:39 47.66669 15.83303 31090 ft 490 kts 114°
2026-04-16 07:40 47.65251 15.87920 31258 ft 490 kts 114°
2026-04-16 07:40 47.63839 15.92517 31433 ft 489 kts 114°
2026-04-16 07:40 47.62426 15.97106 31601 ft 489 kts 114°
2026-04-16 07:40 47.61032 16.01625 31762 ft 488 kts 114°
2026-04-16 07:41 47.59616 16.06206 31933 ft 488 kts 114°
2026-04-16 07:41 47.58201 16.10765 32113 ft 487 kts 114°
2026-04-16 07:41 47.56780 16.15332 32290 ft 487 kts 114°
2026-04-16 07:41 47.55363 16.19876 32462 ft 486 kts 114°
2026-04-16 07:42 47.53943 16.24417 32628 ft 486 kts 115°
2026-04-16 07:42 47.52525 16.28946 32791 ft 485 kts 115°
2026-04-16 07:42 47.51103 16.33481 32951 ft 485 kts 115°
2026-04-16 07:42 47.49688 16.38000 33113 ft 484 kts 115°
2026-04-16 07:43 47.48272 16.42522 33276 ft 484 kts 115°
2026-04-16 07:43 47.46859 16.47025 33434 ft 483 kts 115°
2026-04-16 07:43 47.45436 16.51538 33618 ft 483 kts 115°
2026-04-16 07:43 47.44012 16.56033 33785 ft 482 kts 115°
2026-04-16 07:44 47.42639 16.60541 33958 ft 481 kts 110°
2026-04-16 07:44 47.41546 16.65144 34111 ft 480 kts 108°
2026-04-16 07:44 47.40461 16.69798 34246 ft 480 kts 108°
2026-04-16 07:44 47.39373 16.74453 34379 ft 479 kts 108°
2026-04-16 07:45 47.38283 16.79098 34501 ft 479 kts 109°
2026-04-16 07:45 47.37188 16.83738 34627 ft 479 kts 108°
2026-04-16 07:45 47.36088 16.88376 34748 ft 479 kts 108°
2026-04-16 07:45 47.34986 16.93012 34870 ft 478 kts 108°
2026-04-16 07:46 47.33884 16.97638 35001 ft 478 kts 108°
2026-04-16 07:46 47.32781 17.02264 35157 ft 477 kts 108°
2026-04-16 07:46 47.31678 17.06883 35216 ft 478 kts 108°
2026-04-16 07:47 47.29467 17.16115 35216 ft 478 kts 108°
2026-04-16 07:47 47.27250 17.25366 35217 ft 478 kts 108°
2026-04-16 07:48 47.25023 17.34592 35221 ft 478 kts 108°
2026-04-16 07:48 47.22787 17.43812 35216 ft 478 kts 109°
2026-04-16 07:49 47.20561 17.52966 35225 ft 479 kts 109°
2026-04-16 07:49 47.18307 17.62191 35230 ft 479 kts 108°
2026-04-16 07:50 47.16041 17.71424 35238 ft 479 kts 108°
2026-04-16 07:50 47.13772 17.80628 35232 ft 479 kts 108°
2026-04-16 07:51 47.11518 17.89774 35224 ft 479 kts 109°
2026-04-16 07:51 47.09239 17.98957 35231 ft 479 kts 109°
2026-04-16 07:52 47.06947 18.08128 35221 ft 479 kts 109°
2026-04-16 07:52 47.04648 18.17304 35220 ft 479 kts 109°
2026-04-16 07:53 47.02347 18.26469 35218 ft 478 kts 109°
2026-04-16 07:53 47.00043 18.35627 35221 ft 478 kts 108°
2026-04-16 07:54 46.97735 18.44753 35219 ft 478 kts 109°
2026-04-16 07:54 46.95430 18.53802 35217 ft 477 kts 109°
2026-04-16 07:55 46.93103 18.62900 35217 ft 477 kts 109°
2026-04-16 07:55 46.90770 18.71991 35222 ft 477 kts 108°
2026-04-16 07:56 46.88436 18.81069 35217 ft 476 kts 109°
2026-04-16 07:56 46.86095 18.90126 35214 ft 476 kts 109°
2026-04-16 07:57 46.83763 18.99101 35211 ft 475 kts 109°
2026-04-16 07:57 46.81408 19.08115 35218 ft 474 kts 109°
2026-04-16 07:58 46.79051 19.17105 35214 ft 474 kts 109°
2026-04-16 07:58 46.76699 19.26087 35212 ft 474 kts 109°
2026-04-16 07:59 46.74341 19.35056 35213 ft 473 kts 109°
2026-04-16 07:59 46.71973 19.44009 35221 ft 473 kts 108°
2026-04-16 08:00 46.69596 19.52957 35216 ft 473 kts 109°
2026-04-16 08:00 46.67212 19.61886 35214 ft 473 kts 109°
2026-04-16 08:01 46.64829 19.70808 35217 ft 472 kts 109°
2026-04-16 08:01 46.62456 19.79644 35218 ft 472 kts 109°
2026-04-16 08:02 46.60059 19.88525 35221 ft 472 kts 109°
2026-04-16 08:02 46.56453 20.01848 35207 ft 472 kts 109°
2026-04-16 08:03 46.54044 20.10718 35218 ft 472 kts 109°
2026-04-16 08:03 46.51620 20.19582 35214 ft 472 kts 109°
2026-04-16 08:04 46.49196 20.28431 35203 ft 472 kts 109°
2026-04-16 08:04 46.46769 20.37270 35208 ft 472 kts 109°
2026-04-16 08:05 46.44329 20.46107 35216 ft 472 kts 109°
2026-04-16 08:05 46.41879 20.54920 35214 ft 472 kts 109°
2026-04-16 08:06 46.39422 20.63747 35211 ft 471 kts 109°
2026-04-16 08:06 46.36969 20.72553 35206 ft 472 kts 109°
2026-04-16 08:07 46.34503 20.81353 35202 ft 472 kts 109°
2026-04-16 08:07 46.32029 20.90147 35213 ft 472 kts 109°
2026-04-16 08:08 46.29547 20.98932 35213 ft 471 kts 109°
2026-04-16 08:08 46.27076 21.07638 35211 ft 471 kts 110°
2026-04-16 08:09 46.24581 21.16392 35218 ft 471 kts 110°
2026-04-16 08:09 46.22080 21.25147 35220 ft 471 kts 110°
2026-04-16 08:10 46.19567 21.33876 35209 ft 471 kts 110°
2026-04-16 08:10 46.17048 21.42590 35212 ft 470 kts 110°
2026-04-16 08:11 46.14524 21.51298 35208 ft 470 kts 110°
2026-04-16 08:11 46.12426 21.58529 35200 ft 470 kts 110°
2026-04-16 08:12 46.09483 21.68622 35194 ft 470 kts 110°
2026-04-16 08:12 46.07357 21.75885 35191 ft 469 kts 110°
2026-04-16 08:13 46.04832 21.84488 35190 ft 469 kts 110°
2026-04-16 08:13 46.02284 21.93142 35195 ft 469 kts 110°
2026-04-16 08:14 45.99729 22.01787 35196 ft 470 kts 110°
2026-04-16 08:14 45.97158 22.10448 35193 ft 470 kts 110°
2026-04-16 08:15 45.94582 22.19094 35191 ft 470 kts 110°
2026-04-16 08:15 45.92005 22.27727 35198 ft 470 kts 110°
2026-04-16 08:16 45.89442 22.36305 35194 ft 471 kts 110°
2026-04-16 08:16 45.86847 22.44934 35193 ft 470 kts 110°
2026-04-16 08:17 45.84237 22.53549 35191 ft 470 kts 110°
2026-04-16 08:17 45.81622 22.62162 35195 ft 471 kts 110°
2026-04-16 08:19 45.71135 22.96539 35197 ft 472 kts 111°
2026-04-16 08:20 45.68486 23.05158 35193 ft 473 kts 111°
2026-04-16 08:20 45.65831 23.13762 35194 ft 474 kts 111°
2026-04-16 08:21 45.63154 23.22370 35193 ft 474 kts 111°
2026-04-16 08:21 45.60474 23.30974 35198 ft 474 kts 111°
2026-04-16 08:22 45.57799 23.39524 35195 ft 474 kts 111°
2026-04-16 08:22 45.55105 23.48127 35194 ft 474 kts 111°
2026-04-16 08:23 45.52406 23.56717 35193 ft 475 kts 111°
2026-04-16 08:23 45.49697 23.65313 35195 ft 474 kts 111°
2026-04-16 08:24 45.46987 23.73888 35198 ft 474 kts 111°
2026-04-16 08:24 45.44272 23.82446 35197 ft 474 kts 111°
2026-04-16 08:25 45.41553 23.90989 35195 ft 473 kts 112°
2026-04-16 08:25 45.38833 23.99474 35197 ft 474 kts 112°
2026-04-16 08:26 45.36095 24.08011 35194 ft 474 kts 112°
2026-04-16 08:26 45.33348 24.16539 35201 ft 475 kts 112°
2026-04-16 08:27 45.30599 24.25069 35196 ft 475 kts 112°
2026-04-16 08:27 45.27842 24.33607 35195 ft 475 kts 112°
2026-04-16 08:28 45.25072 24.42136 35196 ft 476 kts 112°
2026-04-16 08:28 45.22287 24.50668 35197 ft 476 kts 112°
2026-04-16 08:29 45.19500 24.59193 35204 ft 477 kts 112°
2026-04-16 08:29 45.16719 24.67678 35192 ft 478 kts 112°
2026-04-16 08:30 45.13910 24.76228 35192 ft 479 kts 112°
2026-04-16 08:30 45.11087 24.84776 35195 ft 479 kts 112°
2026-04-16 08:31 45.08253 24.93316 35201 ft 480 kts 113°
2026-04-16 08:31 45.05410 25.01870 35195 ft 481 kts 113°
2026-04-16 08:32 45.02560 25.10427 35194 ft 481 kts 113°
2026-04-16 08:32 44.99714 25.18925 35198 ft 482 kts 113°
2026-04-16 08:33 44.96842 25.27483 35204 ft 482 kts 114°
2026-04-16 08:33 44.93951 25.36047 35199 ft 483 kts 114°
2026-04-16 08:34 44.91062 25.44608 35204 ft 483 kts 114°
2026-04-16 08:34 44.88166 25.53171 35213 ft 484 kts 114°
2026-04-16 08:35 44.85263 25.61728 35210 ft 484 kts 114°
2026-04-16 08:35 44.82362 25.70247 35215 ft 486 kts 114°
2026-04-16 08:36 44.79429 25.78836 35209 ft 486 kts 115°
2026-04-16 08:36 44.76483 25.87416 35215 ft 487 kts 115°
2026-04-16 08:37 44.73525 25.95993 35211 ft 488 kts 115°
2026-04-16 08:37 44.70550 26.04604 35214 ft 489 kts 115°
2026-04-16 08:38 44.67567 26.13216 35223 ft 490 kts 115°
2026-04-16 08:38 44.64572 26.21830 35229 ft 491 kts 116°
2026-04-16 08:39 44.61578 26.30394 35223 ft 492 kts 116°
2026-04-16 08:39 44.58557 26.39033 35221 ft 493 kts 116°
2026-04-16 08:40 44.55536 26.47673 35224 ft 493 kts 116°
2026-04-16 08:40 44.52500 26.56314 35223 ft 494 kts 116°
2026-04-16 08:41 44.49444 26.64949 35219 ft 495 kts 116°
2026-04-16 08:41 44.46378 26.73598 35221 ft 496 kts 116°
2026-04-16 08:42 44.43323 26.82189 35223 ft 496 kts 116°
2026-04-16 08:42 44.40239 26.90829 35223 ft 496 kts 116°
2026-04-16 08:43 44.37149 26.99468 35227 ft 496 kts 116°
2026-04-16 08:43 44.34055 27.08100 35227 ft 496 kts 116°
2026-04-16 08:44 44.30950 27.16717 35220 ft 497 kts 117°
2026-04-16 08:44 44.27832 27.25352 35214 ft 499 kts 117°
2026-04-16 08:45 44.24704 27.34000 35217 ft 499 kts 117°
2026-04-16 08:45 44.21563 27.42657 35225 ft 500 kts 117°
2026-04-16 08:46 44.18405 27.51310 35212 ft 501 kts 117°
2026-04-16 08:46 44.15249 27.59921 35212 ft 502 kts 117°
2026-04-16 08:47 44.12067 27.68596 35216 ft 503 kts 117°
2026-04-16 08:47 44.08877 27.77284 35206 ft 504 kts 118°
2026-04-16 08:48 44.05670 27.85973 35197 ft 506 kts 118°
2026-04-16 08:48 44.02450 27.94689 35200 ft 507 kts 118°
2026-04-16 08:49 43.99216 28.03411 35215 ft 508 kts 118°
2026-04-16 08:49 43.95986 28.12086 35214 ft 509 kts 118°
2026-04-16 08:50 43.92716 28.20812 35218 ft 509 kts 118°
2026-04-16 08:50 43.89439 28.29531 35223 ft 510 kts 118°
2026-04-16 08:51 43.86161 28.38255 35219 ft 510 kts 119°
2026-04-16 08:51 43.82870 28.46985 35223 ft 511 kts 119°
2026-04-16 08:52 43.79587 28.55647 35223 ft 511 kts 119°
2026-04-16 08:52 43.76273 28.64362 35220 ft 512 kts 119°
2026-04-16 08:53 43.72953 28.73086 35221 ft 513 kts 119°
2026-04-16 08:53 43.69516 28.81727 35227 ft 512 kts 126°
2026-04-16 08:54 43.65371 28.89705 35225 ft 512 kts 128°
2026-04-16 08:54 43.61186 28.97666 35234 ft 512 kts 128°
2026-04-16 08:55 43.57003 29.05622 35236 ft 513 kts 128°
2026-04-16 08:55 43.52818 29.13581 35238 ft 513 kts 128°
2026-04-16 08:56 43.48626 29.21550 35215 ft 513 kts 128°
2026-04-16 08:56 43.44417 29.29509 35225 ft 514 kts 128°
2026-04-16 08:57 43.40222 29.37405 35231 ft 514 kts 129°
2026-04-16 08:57 43.35965 29.45382 35233 ft 514 kts 129°
2026-04-16 08:58 43.31750 29.53274 35230 ft 514 kts 129°
2026-04-16 08:58 43.27513 29.61194 35232 ft 515 kts 129°
2026-04-16 08:59 43.23270 29.69121 35232 ft 515 kts 129°
2026-04-16 08:59 43.19018 29.77031 35229 ft 515 kts 129°
2026-04-16 09:00 43.15479 29.83580 35229 ft 515 kts 129°
2026-04-16 09:00 43.11212 29.91465 35231 ft 515 kts 129°
2026-04-16 09:01 43.04115 30.04545 35217 ft 515 kts 129°
2026-04-16 09:02 43.00533 30.11125 35225 ft 514 kts 129°
2026-04-16 09:02 42.96288 30.18915 35224 ft 514 kts 129°
2026-04-16 09:03 42.92012 30.26737 35223 ft 514 kts 129°
2026-04-16 09:03 42.87727 30.34533 35216 ft 514 kts 129°
2026-04-16 09:04 42.83438 30.42323 35216 ft 514 kts 129°
2026-04-16 09:04 42.79143 30.50108 35211 ft 514 kts 129°
2026-04-16 09:05 42.75239 30.58265 35208 ft 517 kts 116°
2026-04-16 09:05 42.73115 30.67532 35203 ft 517 kts 97°
2026-04-16 09:06 42.72128 30.77231 35210 ft 518 kts 97°
2026-04-16 09:06 42.71135 30.86935 35207 ft 518 kts 97°
2026-04-16 09:07 42.70126 30.96660 35207 ft 519 kts 97°
2026-04-16 09:07 42.69121 31.06317 35208 ft 519 kts 97°
2026-04-16 09:08 42.68106 31.16022 35199 ft 519 kts 97°
2026-04-16 09:08 42.67079 31.25733 35201 ft 519 kts 97°
2026-04-16 09:09 42.66042 31.35433 35204 ft 519 kts 97°
2026-04-16 09:09 42.64999 31.45140 35209 ft 519 kts 97°
2026-04-16 09:10 42.63949 31.54847 35204 ft 519 kts 97°
2026-04-16 09:10 42.62892 31.64553 35203 ft 519 kts 97°
2026-04-16 09:11 42.61832 31.74194 35197 ft 519 kts 97°
2026-04-16 09:11 42.60760 31.83889 35195 ft 519 kts 97°
2026-04-16 09:12 42.59674 31.93589 35196 ft 519 kts 97°
2026-04-16 09:12 42.58575 32.03284 35197 ft 519 kts 97°
2026-04-16 09:13 42.57492 32.12981 35193 ft 519 kts 97°
2026-04-16 09:13 42.56384 32.22666 35190 ft 519 kts 97°
2026-04-16 09:14 42.55261 32.32337 35190 ft 519 kts 97°
2026-04-16 09:14 42.54148 32.41951 35209 ft 519 kts 97°
2026-04-16 09:15 42.53022 32.51615 35199 ft 518 kts 98°
2026-04-16 09:15 42.51883 32.61252 35195 ft 517 kts 98°
2026-04-16 09:16 42.50733 32.70878 35198 ft 516 kts 98°
2026-04-16 09:16 42.49582 32.80478 35190 ft 516 kts 98°
2026-04-16 09:17 42.48437 32.90017 35186 ft 516 kts 98°
2026-04-16 09:17 42.47279 32.99603 35184 ft 516 kts 98°
2026-04-16 09:18 42.46106 33.09192 35184 ft 516 kts 98°
2026-04-16 09:18 42.44928 33.18775 35185 ft 516 kts 98°
2026-04-16 09:19 42.43733 33.28357 35184 ft 516 kts 98°
2026-04-16 09:19 42.42531 33.37933 35187 ft 516 kts 98°
2026-04-16 09:20 42.41327 33.47490 35182 ft 513 kts 98°
2026-04-16 09:20 42.40126 33.56969 35183 ft 510 kts 98°
2026-04-16 09:21 42.38914 33.66449 35193 ft 510 kts 98°
2026-04-16 09:21 42.37706 33.75834 35194 ft 510 kts 98°
2026-04-16 09:22 42.36490 33.85280 35188 ft 510 kts 99°
2026-04-16 09:22 42.35260 33.94727 35189 ft 509 kts 99°
2026-04-16 09:23 42.34024 34.04162 35186 ft 509 kts 99°
2026-04-16 09:23 42.32786 34.13584 35189 ft 509 kts 99°
2026-04-16 09:24 42.31543 34.23008 35188 ft 509 kts 99°
2026-04-16 09:24 42.30285 34.32429 35186 ft 509 kts 99°
2026-04-16 09:25 42.29018 34.41839 35190 ft 509 kts 99°
2026-04-16 09:25 42.27748 34.51234 35207 ft 508 kts 99°
2026-04-16 09:26 42.26487 34.60558 35199 ft 507 kts 99°
2026-04-16 09:26 42.25207 34.69920 35197 ft 506 kts 99°
2026-04-16 09:27 42.23919 34.79256 35197 ft 505 kts 99°
2026-04-16 09:27 42.22637 34.88519 35210 ft 505 kts 99°
2026-04-16 09:28 42.21325 34.97883 35209 ft 505 kts 99°
2026-04-16 09:28 42.20013 35.07189 35217 ft 505 kts 100°
2026-04-16 09:29 42.18699 35.16436 35219 ft 505 kts 100°
2026-04-16 09:29 42.17375 35.25722 35220 ft 504 kts 100°
2026-04-16 09:30 42.16041 35.35007 35229 ft 504 kts 100°
2026-04-16 09:30 42.14706 35.44285 35232 ft 504 kts 100°
2026-04-16 09:31 42.13368 35.53554 35244 ft 504 kts 100°
2026-04-16 09:31 42.12018 35.62822 35239 ft 503 kts 100°
2026-04-16 09:32 42.10662 35.72076 35243 ft 503 kts 100°
2026-04-16 09:32 42.09306 35.81305 35241 ft 503 kts 101°
2026-04-16 09:33 42.07935 35.90540 35240 ft 503 kts 101°
2026-04-16 09:33 42.06566 35.99764 35242 ft 502 kts 101°
2026-04-16 09:34 42.05198 36.08936 35239 ft 502 kts 101°
2026-04-16 09:34 42.03807 36.18163 35243 ft 502 kts 101°
2026-04-16 09:35 42.02404 36.27373 35246 ft 502 kts 101°
2026-04-16 09:35 42.00995 36.36585 35245 ft 502 kts 101°
2026-04-16 09:36 41.99582 36.45787 35247 ft 502 kts 101°
2026-04-16 09:36 41.98167 36.54986 35260 ft 502 kts 101°
2026-04-16 09:37 41.96745 36.64177 35254 ft 502 kts 101°
2026-04-16 09:37 41.95310 36.73367 35250 ft 502 kts 101°
2026-04-16 09:38 41.93885 36.82490 35254 ft 502 kts 101°
2026-04-16 09:38 41.92434 36.91673 35250 ft 502 kts 101°
2026-04-16 09:39 41.90975 37.00849 35250 ft 502 kts 101°
2026-04-16 09:39 41.88770 37.09716 35247 ft 502 kts 113°
2026-04-16 09:40 41.86042 37.18355 35246 ft 502 kts 113°
2026-04-16 09:40 41.83321 37.26994 35248 ft 503 kts 113°
2026-04-16 09:41 41.80593 37.35626 35246 ft 503 kts 113°
2026-04-16 09:41 41.77858 37.44256 35242 ft 503 kts 113°
2026-04-16 09:42 41.75121 37.52873 35246 ft 503 kts 113°
2026-04-16 09:42 41.72373 37.61487 35248 ft 503 kts 113°
2026-04-16 09:43 41.69616 37.70088 35248 ft 503 kts 113°
2026-04-16 09:43 41.66862 37.78636 35251 ft 503 kts 113°
2026-04-16 09:44 41.64094 37.87220 35251 ft 503 kts 113°
2026-04-16 09:44 41.61329 37.95809 35249 ft 503 kts 113°
2026-04-16 09:45 41.58557 38.04388 35254 ft 503 kts 113°
2026-04-16 09:45 41.55766 38.12966 35260 ft 503 kts 114°
2026-04-16 09:46 41.52964 38.21526 35258 ft 503 kts 114°
2026-04-16 09:46 41.50636 38.28639 35254 ft 503 kts 114°
2026-04-16 09:47 41.47832 38.37200 35261 ft 504 kts 114°
2026-04-16 09:47 41.45019 38.45758 35279 ft 504 kts 114°
2026-04-16 09:48 41.42199 38.54300 35270 ft 504 kts 114°
2026-04-16 09:48 41.39375 38.62833 35257 ft 504 kts 114°
2026-04-16 09:49 41.36541 38.71368 35251 ft 504 kts 114°
2026-04-16 09:49 41.33699 38.79887 35246 ft 504 kts 114°
2026-04-16 09:50 41.30887 38.88432 35251 ft 504 kts 114°
2026-04-16 09:50 41.28107 38.96993 35245 ft 504 kts 114°
2026-04-16 09:51 41.25311 39.05548 35241 ft 505 kts 114°
2026-04-16 09:51 41.22505 39.14031 35246 ft 505 kts 114°
2026-04-16 09:52 41.19625 39.22603 35255 ft 505 kts 115°
2026-04-16 09:52 41.16682 39.31005 35254 ft 505 kts 115°
2026-04-16 09:53 41.13692 39.39437 35259 ft 505 kts 115°
2026-04-16 09:53 41.10715 39.47883 35266 ft 505 kts 115°
2026-04-16 09:54 41.07748 39.56329 35265 ft 505 kts 115°
2026-04-16 09:54 41.04769 39.64774 35274 ft 505 kts 115°
2026-04-16 09:55 41.01781 39.73197 35266 ft 506 kts 115°
2026-04-16 09:55 40.99679 39.82050 35261 ft 505 kts 97°
2026-04-16 09:56 40.99270 39.91302 35270 ft 503 kts 90°
2026-04-16 09:56 40.99042 40.00568 35257 ft 504 kts 90°
2026-04-16 09:57 40.98801 40.09837 35239 ft 504 kts 90°
2026-04-16 09:57 40.98560 40.19117 35249 ft 504 kts 90°
2026-04-16 09:58 40.98317 40.28328 35237 ft 504 kts 90°
2026-04-16 09:58 40.98062 40.37598 35249 ft 504 kts 90°
2026-04-16 09:59 40.97794 40.46859 35236 ft 504 kts 91°
2026-04-16 09:59 40.97523 40.56124 35233 ft 504 kts 91°
2026-04-16 10:00 40.97245 40.65378 35235 ft 504 kts 91°
2026-04-16 10:00 40.96955 40.74657 35242 ft 504 kts 91°
2026-04-16 10:01 40.96511 40.88563 35232 ft 504 kts 91°
2026-04-16 10:01 40.96208 40.97827 35228 ft 504 kts 91°
2026-04-16 10:02 40.95894 41.07103 35231 ft 504 kts 91°
2026-04-16 10:02 40.95570 41.16360 35222 ft 504 kts 91°
2026-04-16 10:03 40.95244 41.25633 35228 ft 504 kts 91°
2026-04-16 10:03 40.94916 41.34890 35208 ft 504 kts 91°
2026-04-16 10:04 40.94575 41.44168 35190 ft 504 kts 91°
2026-04-16 10:04 40.94223 41.53428 35189 ft 504 kts 91°
2026-04-16 10:05 40.93860 41.62634 35183 ft 504 kts 91°
2026-04-16 10:05 40.93497 41.71906 35182 ft 504 kts 91°
2026-04-16 10:06 40.93143 41.81175 35131 ft 504 kts 91°
2026-04-16 10:06 40.92962 41.85806 34799 ft 503 kts 91°
2026-04-16 10:06 40.92774 41.90412 34422 ft 502 kts 91°
2026-04-16 10:07 40.92578 41.95024 34018 ft 502 kts 91°
2026-04-16 10:07 40.92379 41.99633 33577 ft 502 kts 91°
2026-04-16 10:07 40.92177 42.04238 33150 ft 502 kts 91°
2026-04-16 10:07 40.91976 42.08850 32750 ft 503 kts 91°
2026-04-16 10:08 40.91777 42.13474 32368 ft 504 kts 91°
2026-04-16 10:08 40.91579 42.18105 31978 ft 504 kts 91°
2026-04-16 10:08 40.91378 42.22737 31597 ft 505 kts 91°
2026-04-16 10:08 40.91175 42.27371 31220 ft 505 kts 91°
2026-04-16 10:09 40.90964 42.32012 30866 ft 505 kts 91°
2026-04-16 10:09 40.90749 42.36644 30496 ft 505 kts 91°
2026-04-16 10:09 40.90533 42.41275 30114 ft 505 kts 91°
2026-04-16 10:09 40.90319 42.45906 29684 ft 505 kts 91°
2026-04-16 10:10 40.90104 42.50540 29261 ft 505 kts 91°
2026-04-16 10:10 40.89887 42.55173 28851 ft 506 kts 91°
2026-04-16 10:10 40.89667 42.59814 28440 ft 506 kts 91°
2026-04-16 10:10 40.89448 42.64397 28042 ft 506 kts 91°
2026-04-16 10:11 40.89223 42.69045 27643 ft 507 kts 91°
2026-04-16 10:11 40.88997 42.73693 27250 ft 507 kts 91°
2026-04-16 10:11 40.88773 42.78341 26862 ft 507 kts 91°
2026-04-16 10:11 40.88549 42.82990 26480 ft 507 kts 91°
2026-04-16 10:12 40.88323 42.87647 26119 ft 507 kts 91°
2026-04-16 10:12 40.88092 42.92300 25750 ft 507 kts 91°
2026-04-16 10:12 40.87856 42.96952 25381 ft 508 kts 91°
2026-04-16 10:12 40.87616 43.01616 25020 ft 509 kts 91°
2026-04-16 10:13 40.87371 43.06281 24662 ft 509 kts 91°
2026-04-16 10:13 40.87123 43.10932 24306 ft 506 kts 91°
2026-04-16 10:13 40.86876 43.15560 23952 ft 503 kts 91°
2026-04-16 10:13 40.86633 43.20161 23601 ft 500 kts 91°
2026-04-16 10:14 40.86393 43.24731 23242 ft 497 kts 91°
2026-04-16 10:14 40.86155 43.29279 22887 ft 495 kts 91°
2026-04-16 10:14 40.85915 43.33803 22537 ft 492 kts 91°
2026-04-16 10:14 40.85677 43.38247 22198 ft 490 kts 91°
2026-04-16 10:15 40.85432 43.42741 21869 ft 488 kts 91°
2026-04-16 10:15 40.85185 43.47196 21653 ft 485 kts 92°
2026-04-16 10:15 40.84937 43.51641 21649 ft 486 kts 92°
2026-04-16 10:15 40.84689 43.56094 21654 ft 486 kts 92°
2026-04-16 10:16 40.84474 43.60544 21645 ft 485 kts 89°
2026-04-16 10:16 40.84638 43.64970 21652 ft 481 kts 80°
2026-04-16 10:16 40.85268 43.69294 21650 ft 478 kts 71°
2026-04-16 10:16 40.86337 43.73430 21650 ft 474 kts 63°
2026-04-16 10:17 40.87815 43.77297 21653 ft 470 kts 56°
2026-04-16 10:17 40.89454 43.81042 21667 ft 470 kts 56°
2026-04-16 10:17 40.91080 43.84776 21676 ft 469 kts 56°
2026-04-16 10:17 40.92703 43.88525 21674 ft 469 kts 57°
2026-04-16 10:18 40.94323 43.92277 21594 ft 469 kts 57°
2026-04-16 10:18 40.95941 43.96023 21251 ft 467 kts 57°
2026-04-16 10:18 40.97531 43.99710 20796 ft 464 kts 57°
2026-04-16 10:18 40.99126 44.03411 20338 ft 461 kts 57°
2026-04-16 10:19 41.00707 44.07088 19924 ft 458 kts 57°
2026-04-16 10:19 41.02268 44.10735 19480 ft 454 kts 58°
2026-04-16 10:19 41.03820 44.14357 19046 ft 451 kts 58°
2026-04-16 10:19 41.05366 44.17959 18618 ft 448 kts 58°
2026-04-16 10:20 41.06903 44.21537 18146 ft 445 kts 58°
2026-04-16 10:20 41.08427 44.25095 17666 ft 441 kts 58°
2026-04-16 10:20 41.09934 44.28621 17186 ft 438 kts 58°
2026-04-16 10:20 41.11411 44.32081 16727 ft 434 kts 59°
2026-04-16 10:21 41.12889 44.35549 16265 ft 430 kts 59°
2026-04-16 10:21 41.14356 44.38993 15800 ft 427 kts 58°
2026-04-16 10:21 41.15809 44.42405 15106 ft 422 kts 59°
2026-04-16 10:21 41.17241 44.45777 14390 ft 416 kts 59°
2026-04-16 10:22 41.18649 44.49101 13701 ft 411 kts 60°
2026-04-16 10:22 41.20054 44.52389 13010 ft 407 kts 59°
2026-04-16 10:22 41.21479 44.55613 12493 ft 399 kts 58°
2026-04-16 10:22 41.22879 44.58711 11889 ft 379 kts 57°
2026-04-16 10:23 41.24233 44.61680 11252 ft 376 kts 57°
2026-04-16 10:23 41.25591 44.64661 11108 ft 378 kts 57°
2026-04-16 10:23 41.26945 44.67653 11023 ft 378 kts 57°
2026-04-16 10:23 41.28279 44.70616 10867 ft 377 kts 58°
2026-04-16 10:24 41.29619 44.73612 10703 ft 377 kts 58°
2026-04-16 10:24 41.30952 44.76603 10538 ft 376 kts 58°
2026-04-16 10:24 41.32118 44.79225 10390 ft 375 kts 58°
2026-04-16 10:24 41.33448 44.82212 10228 ft 375 kts 58°
2026-04-16 10:25 41.34768 44.85181 10056 ft 362 kts 58°
2026-04-16 10:25 41.36003 44.87969 9753 ft 340 kts 58°
2026-04-16 10:25 41.37173 44.90615 9113 ft 321 kts 58°
2026-04-16 10:25 41.38272 44.93098 8605 ft 301 kts 58°
2026-04-16 10:26 41.39329 44.95482 8132 ft 298 kts 58°
2026-04-16 10:26 41.40422 44.97833 7634 ft 299 kts 52°
2026-04-16 10:26 41.41802 44.99874 7140 ft 293 kts 44°
2026-04-16 10:26 41.43159 45.01771 6890 ft 269 kts 44°
2026-04-16 10:27 41.44388 45.03499 6850 ft 249 kts 45°
2026-04-16 10:27 41.45557 45.05142 6752 ft 243 kts 46°
2026-04-16 10:27 41.46706 45.06753 6578 ft 234 kts 45°
2026-04-16 10:27 41.47828 45.08327 5969 ft 233 kts 46°
2026-04-16 10:28 41.48927 45.09877 5439 ft 226 kts 46°
2026-04-16 10:28 41.49966 45.11343 5242 ft 204 kts 46°
2026-04-16 10:28 41.51018 45.12445 5199 ft 184 kts 22°
2026-04-16 10:28 41.52220 45.12699 5137 ft 171 kts 354°
2026-04-16 10:29 41.53332 45.12172 4915 ft 171 kts 326°
2026-04-16 10:29 41.54212 45.11114 4670 ft 171 kts 317°
2026-04-16 10:29 41.55079 45.10019 4470 ft 172 kts 317°
2026-04-16 10:29 41.55950 45.08921 4263 ft 172 kts 317°
2026-04-16 10:30 41.56819 45.07829 4038 ft 171 kts 317°
2026-04-16 10:30 41.57683 45.06742 3830 ft 170 kts 317°
2026-04-16 10:30 41.58543 45.05661 3576 ft 167 kts 317°
2026-04-16 10:30 41.59370 45.04619 3334 ft 159 kts 317°
2026-04-16 10:31 41.60155 45.03632 3100 ft 153 kts 317°
2026-04-16 10:31 41.60915 45.02674 2884 ft 151 kts 317°
2026-04-16 10:31 41.61676 45.01716 2674 ft 150 kts 317°
2026-04-16 10:31 41.62431 45.00765 2467 ft 149 kts 317°
2026-04-16 10:32 41.63182 44.99818 2284 ft 148 kts 317°
2026-04-16 10:32 41.63927 44.98878 2090 ft 148 kts 317°
2026-04-16 10:32 41.64432 44.98241 1950 ft 148 kts 317°
2026-04-16 10:32 41.65418 44.96982 1673 ft 148 kts 318°
2026-04-16 10:33 41.65928 44.96350 1536 ft 148 kts 318°
2026-04-16 10:33 41.66583 44.95535 1524 ft 108 kts 317°
2026-04-16 10:33 41.67009 44.95003 1521 ft 65 kts 317°
2026-04-16 10:33 41.67295 44.94643 1525 ft 46 kts 316°
2026-04-16 10:34 41.67459 44.94437 1525 ft 15 kts 316°
2026-04-16 10:34 41.67535 44.94455 1520 ft 13 kts 57°
2026-04-16 10:34 41.67567 44.94561 1522 ft 13 kts 73°
2026-04-16 10:34 41.67598 44.94701 1524 ft 18 kts 73°
2026-04-16 10:35 41.67636 44.94868 1523 ft 19 kts 73°
2026-04-16 10:35 41.67663 44.95032 1526 ft 15 kts 104°
2026-04-16 10:35 41.67599 44.95138 1524 ft 15 kts 137°
2026-04-16 10:35 41.67524 44.95243 1521 ft 16 kts 131°
2026-04-16 10:36 41.67446 44.95361 1522 ft 17 kts 128°
2026-04-16 10:36 41.67364 44.95488 1526 ft 19 kts 134°
2026-04-16 10:36 41.67270 44.95617 1523 ft 20 kts 134°
2026-04-16 10:36 41.67171 44.95754 1523 ft 21 kts 134°
2026-04-16 10:37 41.67072 44.95900 1524 ft 20 kts 121°
2026-04-16 10:37 41.66985 44.96047 1523 ft 21 kts 133°
2026-04-16 10:37 41.66921 44.96140 1524 ft 10 kts 132°
2026-04-16 10:37 41.66871 44.96220 1522 ft 12 kts 130°
2026-04-16 10:38 41.66848 44.96256 1525 ft 1 kts 131°
2026-04-16 10:38 41.66839 44.96270 1519 ft 3 kts 131°
2026-04-16 10:38 41.66821 44.96297 1523 ft 5 kts 131°
2026-04-16 10:38 41.66817 44.96336 1527 ft 5 kts 58°
2026-04-16 10:39 41.66845 44.96372 1522 ft 6 kts 43°
2026-04-16 10:39 41.66861 44.96391 1523 ft 0 kts 43°